Location: Invercargill
(46.4000°S, 168.3500°E)
Time: 17:49:59
(UTC+13:00)

Cosmos 2322 - Pass Details

Date: 04 October 2021
Orbit: 840 x 855 km, 71.0° (Epoch: 17 October)

Event Time Altitude Azimuth Distance (km) Brightness Sun altitude
Rises 22:04:23 0° 203° (SSW) 3,436 7.8 -21.1°
Reaches altitude 10° 22:06:59 10° 196° (SSW) 2,497 6.8 -21.5°
Maximum altitude 22:12:27 43° 125° (SE) 1,181 4.2 -22.2°
Enters shadow 22:13:26 40° 98° (E) 1,247 4.2 -22.4°
